Time,TemperatureF,DewpointF,PressureIn,WindDirection,WindDirectionDegrees,WindSpeedMPH,WindSpeedGustMPH,Humidity,HourlyPrecipIn,Conditions,Clouds,dailyrainin,SoftwareType,DateUTC
2013-05-03 00:02:00,38.0,37.0,30.25,NE,35,4.0,14.0,96,0.29,,,1.59,,2013-05-03 05:02:00,
2013-05-03 00:12:00,38.0,37.0,30.25,NE,35,4.0,14.0,96,0.29,,,1.59,,2013-05-03 05:12:00,
2013-05-03 00:21:00,38.0,37.0,30.24,NNE,25,8.0,14.0,96,0.30,,,1.66,,2013-05-03 05:21:00,
2013-05-03 00:32:00,38.0,37.0,30.23,NE,44,9.0,15.0,96,0.33,,,1.78,,2013-05-03 05:32:00,
2013-05-03 00:42:00,38.0,37.0,30.23,NE,44,9.0,15.0,96,0.33,,,1.78,,2013-05-03 05:42:00,
2013-05-03 00:52:00,38.0,37.0,30.23,NE,42,9.0,15.0,96,0.29,,,1.80,,2013-05-03 05:52:00,
2013-05-03 01:01:00,38.0,37.0,30.23,NNE,26,9.0,16.0,96,0.23,,,1.82,,2013-05-03 06:01:00,
2013-05-03 01:11:00,38.0,37.0,30.23,NNE,26,9.0,16.0,96,0.23,,,1.82,,2013-05-03 06:11:00,
2013-05-03 01:21:00,38.0,37.0,30.24,NNE,26,3.0,12.0,96,0.19,,,1.85,,2013-05-03 06:21:00,
2013-05-03 01:32:00,38.0,37.0,30.23,NE,46,3.0,11.0,96,0.12,,,1.90,,2013-05-03 06:32:00,
2013-05-03 01:42:00,38.0,37.0,30.23,NE,46,3.0,11.0,96,0.12,,,1.90,,2013-05-03 06:42:00,
2013-05-03 01:52:00,38.0,37.0,30.22,NE,34,6.0,12.0,96,0.14,,,1.95,,2013-05-03 06:52:00,
2013-05-03 02:01:00,38.0,37.0,30.22,NNE,32,5.0,10.0,96,0.16,,,1.98,,2013-05-03 07:01:00,
2013-05-03 02:11:00,38.0,37.0,30.22,NNE,32,5.0,10.0,96,0.16,,,1.98,,2013-05-03 07:11:00,
2013-05-03 02:21:00,37.0,36.0,30.20,ENE,67,9.0,17.0,96,0.15,,,2.00,,2013-05-03 07:21:00,
2013-05-03 02:31:00,37.0,36.0,30.19,NE,53,7.0,11.0,96,0.14,,,2.05,,2013-05-03 07:31:00,
2013-05-03 02:42:00,37.0,36.0,30.19,NE,53,7.0,11.0,96,0.14,,,2.05,,2013-05-03 07:42:00,
2013-05-03 02:52:00,37.0,36.0,30.18,ENE,69,7.0,15.0,96,0.10,,,2.05,,2013-05-03 07:52:00,
2013-05-03 03:01:00,37.0,36.0,30.19,NE,35,8.0,14.0,96,0.08,,,2.06,,2013-05-03 08:01:00,
2013-05-03 03:11:00,37.0,36.0,30.19,NE,35,8.0,14.0,96,0.08,,,2.06,,2013-05-03 08:11:00,
2013-05-03 03:21:00,37.0,36.0,30.19,NE,49,6.0,13.0,96,0.06,,,2.06,,2013-05-03 08:21:00,
2013-05-03 03:32:00,37.0,36.0,30.18,ENE,61,8.0,14.0,96,0.01,,,2.06,,2013-05-03 08:32:00,
2013-05-03 03:42:00,37.0,36.0,30.18,ENE,61,8.0,14.0,96,0.01,,,2.06,,2013-05-03 08:42:00,
2013-05-03 03:53:00,37.0,36.0,30.19,NE,46,6.0,15.0,96,0.01,,,2.06,,2013-05-03 08:53:00,
2013-05-03 04:01:00,37.0,36.0,30.18,North,9,6.0,12.0,96,0.00,,,2.06,,2013-05-03 09:01:00,
2013-05-03 04:11:00,37.0,36.0,30.18,North,9,6.0,12.0,96,0.00,,,2.06,,2013-05-03 09:11:00,
2013-05-03 04:21:00,37.0,36.0,30.18,ENE,78,7.0,12.0,96,0.00,,,2.06,,2013-05-03 09:21:00,
2013-05-03 04:32:00,37.0,36.0,30.17,NE,51,8.0,16.0,96,0.00,,,2.06,,2013-05-03 09:32:00,
2013-05-03 04:42:00,37.0,36.0,30.17,NE,51,8.0,16.0,96,0.00,,,2.06,,2013-05-03 09:42:00,
2013-05-03 04:53:00,37.0,36.0,30.17,NE,47,10.0,18.0,96,0.00,,,2.06,,2013-05-03 09:53:00,
2013-05-03 05:02:00,37.0,36.0,30.17,ENE,65,10.0,22.0,96,0.00,,,2.06,,2013-05-03 10:02:00,
2013-05-03 05:12:00,37.0,36.0,30.17,ENE,65,10.0,22.0,96,0.00,,,2.06,,2013-05-03 10:12:00,
2013-05-03 05:22:00,37.0,36.0,30.16,NE,38,6.0,15.0,96,0.00,,,2.06,,2013-05-03 10:22:00,
2013-05-03 05:32:00,37.0,36.0,30.16,NE,55,8.0,15.0,96,0.00,,,2.06,,2013-05-03 10:32:00,
2013-05-03 05:42:00,37.0,36.0,30.16,NE,55,8.0,15.0,96,0.00,,,2.06,,2013-05-03 10:42:00,
2013-05-03 05:52:00,37.0,36.0,30.17,ENE,62,8.0,15.0,96,0.00,,,2.06,,2013-05-03 10:52:00,
2013-05-03 06:02:00,37.0,36.0,30.16,NE,55,5.0,19.0,96,0.00,,,2.06,,2013-05-03 11:02:00,
2013-05-03 06:11:00,37.0,36.0,30.16,NE,55,5.0,19.0,96,0.00,,,2.06,,2013-05-03 11:11:00,
2013-05-03 06:22:00,37.0,36.0,30.17,ENE,62,9.0,14.0,96,0.00,,,2.06,,2013-05-03 11:22:00,
2013-05-03 06:31:00,37.0,36.0,30.17,ENE,66,6.0,18.0,97,0.00,,,2.06,,2013-05-03 11:31:00,
2013-05-03 06:42:00,37.0,36.0,30.17,ENE,66,6.0,18.0,97,0.00,,,2.06,,2013-05-03 11:42:00,
2013-05-03 06:52:00,37.0,36.0,30.18,NE,36,4.0,12.0,97,0.00,,,2.06,,2013-05-03 11:52:00,
2013-05-03 07:01:00,37.0,36.0,30.17,NE,46,7.0,13.0,97,0.00,,,2.06,,2013-05-03 12:01:00,
2013-05-03 07:11:00,37.0,36.0,30.17,NE,46,7.0,13.0,97,0.00,,,2.06,,2013-05-03 12:11:00,
2013-05-03 07:21:00,37.0,36.0,30.17,NE,52,8.0,14.0,97,0.00,,,2.06,,2013-05-03 12:21:00,
2013-05-03 07:32:00,37.0,36.0,30.18,ENE,76,10.0,18.0,97,0.00,,,2.06,,2013-05-03 12:32:00,
2013-05-03 07:42:00,37.0,36.0,30.18,ENE,76,10.0,18.0,97,0.00,,,2.06,,2013-05-03 12:42:00,
2013-05-03 07:52:00,37.0,36.0,30.17,East,87,8.0,14.0,97,0.15,,,2.21,,2013-05-03 12:52:00,
2013-05-03 08:01:00,37.0,36.0,30.16,ENE,57,9.0,16.0,97,0.23,,,2.29,,2013-05-03 13:01:00,
2013-05-03 08:11:00,37.0,36.0,30.16,ENE,57,9.0,16.0,97,0.23,,,2.29,,2013-05-03 13:11:00,
2013-05-03 08:22:00,37.0,36.0,30.16,East,79,7.0,15.0,97,0.29,,,2.35,,2013-05-03 13:22:00,
2013-05-03 08:32:00,38.0,37.0,30.15,ENE,59,8.0,13.0,97,0.30,,,2.36,,2013-05-03 13:32:00,
2013-05-03 08:42:00,38.0,37.0,30.15,ENE,59,8.0,13.0,97,0.30,,,2.36,,2013-05-03 13:42:00,
2013-05-03 08:52:00,38.0,37.0,30.14,ENE,60,11.0,17.0,97,0.16,,,2.36,,2013-05-03 13:52:00,
2013-05-03 09:02:00,38.0,37.0,30.15,East,101,4.0,19.0,97,0.08,,,2.37,,2013-05-03 14:02:00,
2013-05-03 09:11:00,38.0,37.0,30.15,East,101,4.0,19.0,97,0.08,,,2.37,,2013-05-03 14:11:00,
2013-05-03 09:22:00,38.0,37.0,30.15,ENE,67,10.0,16.0,97,0.02,,,2.37,,2013-05-03 14:22:00,
2013-05-03 09:32:00,38.0,37.0,30.14,ENE,58,11.0,18.0,97,0.01,,,2.37,,2013-05-03 14:32:00,
2013-05-03 09:42:00,38.0,37.0,30.14,ENE,58,11.0,18.0,97,0.01,,,2.37,,2013-05-03 14:42:00,
2013-05-03 09:52:00,39.0,38.0,30.13,ENE,71,11.0,18.0,96,0.01,,,2.37,,2013-05-03 14:52:00,
2013-05-03 10:01:00,39.0,38.0,30.13,ENE,68,8.0,15.0,97,0.00,,,2.37,,2013-05-03 15:01:00,
2013-05-03 10:11:00,39.0,38.0,30.13,ENE,68,8.0,15.0,97,0.00,,,2.37,,2013-05-03 15:11:00,
2013-05-03 10:22:00,39.0,38.0,30.13,ENE,58,9.0,16.0,97,0.00,,,2.37,,2013-05-03 15:22:00,
2013-05-03 10:32:00,40.0,39.0,30.14,NE,44,5.0,10.0,97,0.00,,,2.37,,2013-05-03 15:32:00,
2013-05-03 10:43:00,40.0,39.0,30.14,NE,44,5.0,10.0,97,0.00,,,2.37,,2013-05-03 15:43:00,
2013-05-03 10:53:00,40.0,39.0,30.14,ENE,59,5.0,11.0,96,0.00,,,2.37,,2013-05-03 15:53:00,
2013-05-03 11:03:00,40.0,39.0,30.14,NE,55,8.0,14.0,96,0.00,,,2.37,,2013-05-03 16:03:00,
2013-05-03 11:12:00,40.0,39.0,30.14,NE,55,8.0,14.0,96,0.00,,,2.37,,2013-05-03 16:12:00,
2013-05-03 11:22:00,40.0,39.0,30.14,ENE,73,5.0,12.0,96,0.02,,,2.39,,2013-05-03 16:22:00,
2013-05-03 11:32:00,40.0,39.0,30.13,ENE,63,10.0,16.0,97,0.06,,,2.43,,2013-05-03 16:32:00,
2013-05-03 11:42:00,40.0,39.0,30.13,ENE,63,10.0,16.0,97,0.06,,,2.43,,2013-05-03 16:42:00,
2013-05-03 11:52:00,40.0,39.0,30.13,East,86,6.0,12.0,97,0.09,,,2.46,,2013-05-03 16:52:00,
2013-05-03 12:02:00,41.0,40.0,30.13,East,87,9.0,14.0,97,0.09,,,2.46,,2013-05-03 17:02:00,
2013-05-03 12:12:00,41.0,40.0,30.13,East,87,9.0,14.0,97,0.09,,,2.46,,2013-05-03 17:12:00,
2013-05-03 12:23:00,41.0,40.0,30.12,East,99,6.0,17.0,97,0.08,,,2.47,,2013-05-03 17:23:00,
2013-05-03 12:32:00,42.0,41.0,30.12,ENE,72,6.0,13.0,97,0.04,,,2.47,,2013-05-03 17:32:00,
2013-05-03 12:42:00,42.0,41.0,30.12,ENE,72,6.0,13.0,97,0.04,,,2.47,,2013-05-03 17:42:00,
2013-05-03 12:52:00,42.0,41.0,30.12,ENE,69,7.0,14.0,97,0.01,,,2.47,,2013-05-03 17:52:00,
2013-05-03 13:01:00,42.0,41.0,30.11,East,88,7.0,16.0,97,0.01,,,2.47,,2013-05-03 18:01:00,
2013-05-03 13:12:00,42.0,41.0,30.11,East,88,7.0,16.0,97,0.01,,,2.47,,2013-05-03 18:12:00,
2013-05-03 13:21:00,43.0,42.0,30.11,East,87,8.0,14.0,97,0.00,,,2.47,,2013-05-03 18:21:00,
2013-05-03 13:32:00,44.0,43.0,30.10,East,97,9.0,14.0,96,0.00,,,2.47,,2013-05-03 18:32:00,
2013-05-03 13:42:00,44.0,43.0,30.10,East,97,9.0,14.0,96,0.00,,,2.47,,2013-05-03 18:42:00,
2013-05-03 13:52:00,45.0,44.0,30.11,East,93,5.0,14.0,96,0.00,,,2.47,,2013-05-03 18:52:00,
2013-05-03 14:01:00,45.0,44.0,30.11,ESE,113,5.0,11.0,95,0.00,,,2.47,,2013-05-03 19:01:00,
2013-05-03 14:11:00,45.0,44.0,30.11,ESE,113,5.0,11.0,95,0.00,,,2.47,,2013-05-03 19:11:00,
2013-05-03 14:21:00,45.0,44.0,30.10,East,82,7.0,15.0,95,0.00,,,2.33,,2013-05-03 19:21:00,
2013-05-03 14:32:00,45.0,43.0,30.11,ESE,103,10.0,16.0,93,0.00,,,2.33,,2013-05-03 19:32:00,
2013-05-03 14:41:00,45.0,43.0,30.11,ESE,103,10.0,16.0,93,0.00,,,2.33,,2013-05-03 19:41:00,
2013-05-03 14:52:00,46.0,44.0,30.10,ENE,59,7.0,13.0,94,0.00,,,2.33,,2013-05-03 19:52:00,
2013-05-03 15:02:00,46.0,44.0,30.10,East,86,7.0,13.0,94,0.01,,,2.34,,2013-05-03 20:02:00,
2013-05-03 15:11:00,46.0,44.0,30.10,East,86,7.0,13.0,94,0.01,,,2.34,,2013-05-03 20:11:00,
2013-05-03 15:21:00,46.0,44.0,30.10,East,94,8.0,13.0,94,0.01,,,2.15,,2013-05-03 20:21:00,
2013-05-03 15:31:00,46.0,44.0,30.10,ENE,65,7.0,13.0,94,0.03,,,2.17,,2013-05-03 20:31:00,
2013-05-03 15:42:00,46.0,44.0,30.10,ENE,65,7.0,13.0,94,0.03,,,2.17,,2013-05-03 20:42:00,
2013-05-03 15:52:00,46.0,44.0,30.09,East,82,8.0,13.0,94,0.03,,,2.17,,2013-05-03 20:52:00,
2013-05-03 16:01:00,46.0,45.0,30.09,ENE,74,7.0,10.0,95,0.02,,,2.17,,2013-05-03 21:01:00,
2013-05-03 16:11:00,46.0,45.0,30.09,ENE,74,7.0,10.0,95,0.02,,,2.17,,2013-05-03 21:11:00,
2013-05-03 16:21:00,46.0,45.0,30.08,East,98,8.0,12.0,95,0.03,,,2.17,,2013-05-03 21:21:00,
2013-05-03 16:33:00,46.0,45.0,30.08,ENE,61,8.0,11.0,96,0.02,,,2.18,,2013-05-03 21:33:00,
2013-05-03 16:42:00,46.0,45.0,30.08,ENE,61,8.0,11.0,96,0.02,,,2.18,,2013-05-03 21:42:00,
2013-05-03 16:53:00,46.0,45.0,30.07,East,81,6.0,13.0,96,0.02,,,2.18,,2013-05-03 21:53:00,
2013-05-03 17:02:00,46.0,45.0,30.07,East,81,9.0,16.0,96,0.02,,,2.18,,2013-05-03 22:02:00,
2013-05-03 17:12:00,46.0,45.0,30.07,East,81,9.0,16.0,96,0.02,,,2.18,,2013-05-03 22:12:00,
2013-05-03 17:22:00,46.0,45.0,30.07,ENE,63,8.0,15.0,96,0.02,,,2.19,,2013-05-03 22:22:00,
2013-05-03 17:32:00,46.0,45.0,30.06,ENE,71,6.0,14.0,96,0.02,,,2.20,,2013-05-03 22:32:00,
2013-05-03 17:42:00,46.0,45.0,30.06,ENE,71,6.0,14.0,96,0.02,,,2.20,,2013-05-03 22:42:00,
2013-05-03 17:52:00,46.0,45.0,30.06,ENE,61,8.0,14.0,96,0.03,,,2.21,,2013-05-03 22:52:00,
2013-05-03 18:01:00,46.0,45.0,30.06,NE,48,9.0,17.0,97,0.04,,,2.22,,2013-05-03 23:01:00,
2013-05-03 18:11:00,46.0,45.0,30.06,NE,48,9.0,17.0,97,0.04,,,2.22,,2013-05-03 23:11:00,
2013-05-03 18:21:00,46.0,45.0,30.07,East,90,9.0,15.0,97,0.03,,,2.22,,2013-05-03 23:21:00,
2013-05-03 18:31:00,46.0,45.0,30.07,East,89,9.0,17.0,97,0.02,,,2.22,,2013-05-03 23:31:00,
2013-05-03 18:41:00,46.0,45.0,30.07,East,89,9.0,17.0,97,0.02,,,2.22,,2013-05-03 23:41:00,
2013-05-03 18:52:00,46.0,45.0,30.07,East,79,7.0,15.0,97,0.01,,,2.22,,2013-05-03 23:52:00,
2013-05-03 19:01:00,45.0,44.0,30.08,East,95,8.0,16.0,97,0.00,,,2.22,,2013-05-04 00:01:00,
2013-05-03 19:11:00,45.0,44.0,30.08,East,95,8.0,16.0,97,0.00,,,2.22,,2013-05-04 00:11:00,
2013-05-03 19:23:00,45.0,44.0,30.08,ENE,74,9.0,17.0,97,0.00,,,2.22,,2013-05-04 00:23:00,
2013-05-03 19:31:00,45.0,44.0,30.07,ENE,66,10.0,17.0,97,0.00,,,2.22,,2013-05-04 00:31:00,
2013-05-03 19:41:00,45.0,44.0,30.07,ENE,66,10.0,17.0,97,0.00,,,2.22,,2013-05-04 00:41:00,
2013-05-03 19:52:00,46.0,45.0,30.07,East,89,9.0,15.0,96,0.00,,,2.22,,2013-05-04 00:52:00,
2013-05-03 20:01:00,46.0,45.0,30.07,East,81,9.0,14.0,95,0.00,,,2.22,,2013-05-04 01:01:00,
2013-05-03 20:11:00,46.0,45.0,30.07,East,81,9.0,14.0,95,0.00,,,2.22,,2013-05-04 01:11:00,
2013-05-03 20:21:00,46.0,44.0,30.07,ENE,69,9.0,14.0,94,0.00,,,2.22,,2013-05-04 01:21:00,
2013-05-03 20:31:00,47.0,45.0,30.07,ENE,65,7.0,13.0,93,0.00,,,2.22,,2013-05-04 01:31:00,
2013-05-03 20:41:00,47.0,45.0,30.07,ENE,65,7.0,13.0,93,0.00,,,2.22,,2013-05-04 01:41:00,
2013-05-03 20:52:00,47.0,45.0,30.07,East,96,5.0,13.0,93,0.00,,,2.22,,2013-05-04 01:52:00,
2013-05-03 21:02:00,47.0,45.0,30.07,ENE,78,7.0,14.0,93,0.00,,,2.22,,2013-05-04 02:02:00,
2013-05-03 21:11:00,47.0,45.0,30.07,ENE,78,7.0,14.0,93,0.00,,,2.22,,2013-05-04 02:11:00,
2013-05-03 21:21:00,47.0,45.0,30.08,East,88,7.0,13.0,93,0.00,,,1.90,,2013-05-04 02:21:00,
2013-05-03 21:32:00,48.0,46.0,30.08,ENE,71,8.0,16.0,92,0.00,,,1.90,,2013-05-04 02:32:00,
2013-05-03 21:41:00,48.0,46.0,30.08,ENE,71,8.0,16.0,92,0.00,,,1.90,,2013-05-04 02:41:00,
2013-05-03 21:52:00,48.0,46.0,30.08,ENE,76,9.0,19.0,92,0.00,,,1.90,,2013-05-04 02:52:00,
2013-05-03 22:02:00,48.0,45.0,30.08,ENE,72,12.0,22.0,89,0.00,,,1.90,,2013-05-04 03:02:00,
2013-05-03 22:11:00,48.0,45.0,30.08,ENE,72,12.0,22.0,89,0.00,,,1.90,,2013-05-04 03:11:00,
2013-05-03 22:22:00,49.0,45.0,30.08,East,98,9.0,24.0,87,0.00,,,1.78,,2013-05-04 03:22:00,
2013-05-03 22:33:00,48.0,44.0,30.08,East,90,12.0,20.0,87,0.00,,,1.78,,2013-05-04 03:33:00,
2013-05-03 22:43:00,48.0,44.0,30.08,East,90,12.0,20.0,87,0.00,,,1.78,,2013-05-04 03:43:00,
2013-05-03 22:53:00,47.0,43.0,30.07,ENE,65,9.0,23.0,87,0.00,,,1.78,,2013-05-04 03:53:00,
2013-05-03 23:02:00,47.0,43.0,30.07,East,86,10.0,21.0,87,0.00,,,1.78,,2013-05-04 04:02:00,
2013-05-03 23:12:00,47.0,43.0,30.07,East,86,10.0,21.0,87,0.00,,,1.78,,2013-05-04 04:12:00,
2013-05-03 23:22:00,47.0,43.0,30.07,ENE,78,13.0,19.0,85,0.00,,,1.21,,2013-05-04 04:22:00,
2013-05-03 23:32:00,47.0,43.0,30.07,East,93,10.0,17.0,86,0.00,,,1.21,,2013-05-04 04:32:00,
2013-05-03 23:42:00,47.0,43.0,30.07,East,93,10.0,17.0,86,0.00,,,1.21,,2013-05-04 04:42:00,
2013-05-03 23:52:00,47.0,43.0,30.07,East,101,10.0,19.0,86,0.00,,,1.21,,2013-05-04 04:52:00,